• Join FlightAware (Why Join?)
  • Login
  • US Flag GB Flag 
23:13 EST


 

Airport Tracker/Info


-or-


 

Live Flight TrackerFlight Track Log ✈ UAL5915 ✈ 15-Apr-2013 ✈ KTUL - KIAD

Flight Track Log - Related Links

Times and Time Zones

All times are in EDT time to prevent confusion due to time zone crossing. See the UAL5915 flight status page for this flight to view local times or setup timezone preferences in your user account.

Time Position Orientation Groundspeed Altitude Reporting Facility
EDT Latitude Longitude Course Direction KTS MPH feet Rate Location/Type
13:36 36.1956 -95.8658 88° East 161 185 1,300  Level Kansas City Center
13:37 36.1967 -95.8322 88° East 169 194 2,500 2,100 Climbing Kansas City Center
13:38 36.1894 -95.7783 99° East 198 228 4,000 1,980 Climbing Kansas City Center
13:39 36.1697 -95.6881 105° East 255 293 6,200 2,220 Climbing Kansas City Center
13:40 36.1478 -95.5844 105° East 303 349 8,700 2,160 Climbing Kansas City Center
13:41 36.1239 -95.4778 105° East 316 364 10,700 1,620 Climbing Kansas City Center
13:42 36.0914 -95.3239 105° East 369 425 12,100 1,560 Climbing Kansas City Center
13:43 36.0636 -95.1892 104° East 399 459 14,000 1,800 Climbing Kansas City Center
13:44 36.0333 -95.0519 105° East 414 476 15,800 1,740 Climbing Kansas City Center
13:44 36.0242 -95.0022 103° East 403 464 16,500 1,500 Climbing Memphis Center
13:45 36.0253 -94.8561 89° East 408 470 18,000 1,500 Climbing Memphis Center
13:46 36.0306 -94.7075 87° East 419 482 19,600 1,500 Climbing Memphis Center
13:47 36.0378 -94.5589 87° East 430 495 21,100 1,500 Climbing Memphis Center
13:48 36.0431 -94.4053 88° East 435 501 22,600 1,320 Climbing Memphis Center
13:49 36.0478 -94.2514 88° East 435 501 23,800 1,140 Climbing Memphis Center
13:50 36.0506 -94.0975 89° East 440 506 24,900 960 Climbing Memphis Center
13:51 36.0553 -93.9333 88° East 450 518 25,800 900 Climbing Memphis Center
13:52 36.0597 -93.7719 88° East 461 531 26,800 960 Climbing Memphis Center
13:53 36.0661 -93.6103 87° East 461 531 27,800 960 Climbing Memphis Center
13:54 36.0683 -93.4461 89° East 461 531 28,800 1,020 Climbing Memphis Center
13:55 36.0722 -93.2844 88° East 461 531 29,900 1,020 Climbing Memphis Center
13:56 36.0781 -93.1178 87° East 474 545 30,900 960 Climbing Memphis Center
13:57 36.0817 -92.9533 88° East 485 558 31,900 960 Climbing Memphis Center
13:58 36.0872 -92.7842 88° East 480 552 32,900 960 Climbing Memphis Center
13:59 36.0903 -92.6172 89° East 480 552 33,900 960 Climbing Memphis Center
14:00 36.0931 -92.4503 89° East 480 552 34,900 960 Climbing Memphis Center
14:01 36.0958 -92.2861 89° East 474 545 35,900 960 Climbing Memphis Center
14:02 36.1025 -92.1244 87° East 474 545 36,900 540 Climbing Memphis Center
14:03 36.1361 -91.9503 77° East 474 545 37,000  Climbing Memphis Center
14:04 36.1756 -91.7867 73° East 479 551 37,000  Level Memphis Center
14:05 36.2211 -91.6228 71° East 491 565 37,000  Level Memphis Center
14:06 36.2664 -91.4561 71° East 497 572 37,000  Level Memphis Center
14:07 36.3075 -91.2892 73° East 497 572 37,000  Level Memphis Center
14:08 36.3522 -91.1275 71° East 497 572 37,000  Level Memphis Center
14:09 36.3928 -90.9653 73° East 492 566 37,000  Level Memphis Center
14:10 36.4372 -90.8033 71° East 492 566 37,000  Level Memphis Center
14:11 36.4794 -90.6408 72° East 492 566 37,000  Level Memphis Center
14:12 36.5214 -90.4783 72° East 492 566 37,000  Level Memphis Center
14:13 36.5567 -90.3311 73° East 492 566 37,000  Level Memphis Center
14:14 36.5983 -90.1683 72° East 492 566 37,000  Level Memphis Center
14:15 36.6397 -90.0028 73° East 497 572 37,000  Level Memphis Center
14:16 36.6808 -89.8394 73° East 497 572 37,000  Level Memphis Center
14:17 36.7217 -89.6736 73° East 497 572 37,000  Level Memphis Center
14:18 36.7622 -89.5050 73° East 497 572 37,000  Level Memphis Center
14:19 36.8047 -89.3386 72° East 497 572 37,000  Level Memphis Center
14:20 36.8450 -89.1694 73° East 497 572 37,000  Level Memphis Center
14:21 36.8850 -89.0031 73° East 497 572 37,000  Level Memphis Center
14:22 36.9247 -88.8361 73° East 497 572 37,000  Level Memphis Center
14:23 36.9642 -88.6667 74° East 497 572 37,000  Level Memphis Center
14:24 37.0053 -88.4969 73° East 497 572 37,000  Level Memphis Center
14:25 37.0464 -88.3139 74° East 497 572 37,000  Level Memphis Center
14:26 37.0872 -88.1439 73° East 497 572 37,000  Level Memphis Center
14:27 37.1197 -87.9894 75° East 497 572 37,000  Level Memphis Center
14:28 37.1581 -87.8219 74° East 497 572 37,000  Level Memphis Center
14:31 37.2508 -87.3983 74° East 501 577 37,000  Level Indianapolis Center
14:32 37.2878 -87.2300 75° East 497 572 37,000  Level Indianapolis Center
14:33 37.3253 -87.0581 75° East 501 577 37,000  Level Indianapolis Center
14:34 37.3631 -86.8883 74° East 501 577 37,000  Level Indianapolis Center
14:35 37.4000 -86.7158 75° East 503 579 37,000  Level Indianapolis Center
14:36 37.4369 -86.5442 75° East 502 578 37,000  Level Indianapolis Center
14:37 37.4739 -86.3731 75° East 502 578 37,000  Level Indianapolis Center
14:38 37.5097 -86.2014 75° East 503 579 37,000  Level Indianapolis Center
14:39 37.5456 -86.0292 75° East 503 579 37,000  Level Indianapolis Center
14:40 37.5817 -85.8544 75° East 500 575 37,000  Level Indianapolis Center
14:41 37.6192 -85.6847 74° East 503 579 37,000  Level Indianapolis Center
14:42 37.6564 -85.4942 76° East 505 581 37,000  Level Indianapolis Center
14:43 37.6903 -85.3228 76° East 503 579 37,000  Level Indianapolis Center
14:44 37.7253 -85.1494 76° East 507 583 37,000  Level Indianapolis Center
14:45 37.7650 -84.9483 76° East 506 582 37,000  Level Indianapolis Center
14:46 37.7994 -84.7761 76° East 506 582 37,000  Level Indianapolis Center
14:47 37.8339 -84.6008 76° East 513 590 37,000  Level Indianapolis Center
14:48 37.8819 -84.4389 69° East 501 577 37,000  Level Indianapolis Center
14:49 37.9644 -84.2964 54° Northeast 496 571 37,000  Level Indianapolis Center
14:50 38.0486 -84.1553 53° Northeast 497 572 37,000  Level Indianapolis Center
14:51 38.1317 -84.0114 54° Northeast 502 578 37,000  Level Indianapolis Center
14:52 38.2306 -83.8447 53° Northeast 502 578 37,000  Level Indianapolis Center
14:53 38.3119 -83.7050 53° Northeast 494 568 37,000  Level Indianapolis Center
14:54 38.3942 -83.5656 53° Northeast 490 564 37,000  Level Indianapolis Center
14:55 38.4475 -83.4039 67° East 499 574 37,000  Level Indianapolis Center
14:56 38.4250 -83.2314 99° East 492 566 37,000  Level Indianapolis Center
14:57 38.3658 -83.0739 116° Southeast 492 566 37,000  Level Indianapolis Center
14:58 38.3419 -82.9017 100° East 497 572 37,000  Level Indianapolis Center
14:59 38.3403 -82.6942 91° East 501 577 37,000  Level Indianapolis Center
15:00 38.3386 -82.5156 91° East 502 578 37,000  Level Indianapolis Center
15:02 38.3375 -82.3519 90° East 501 577 37,000  Level Indianapolis Center
15:03 38.3350 -82.1750 91° East 502 578 37,000  Level Indianapolis Center
15:04 38.3344 -81.9994 90° East 499 574 37,000  Level Indianapolis Center
15:05 38.3314 -81.7869 91° East 503 579 37,000  Level Indianapolis Center
15:06 38.3275 -81.6100 92° East 505 581 37,000  Level Indianapolis Center
15:07 38.3247 -81.4336 91° East 502 578 37,000 -300 Level Indianapolis Center
15:08 38.3214 -81.2572 91° East 504 580 36,500 -720 Descending Indianapolis Center
15:09 38.3167 -81.0792 92° East 506 582 35,600 -1,020 Descending Indianapolis Center
15:10 38.3128 -80.8642 91° East 509 586 34,400 -1,020 Descending Indianapolis Center
15:11 38.3094 -80.6836 91° East 513 590 33,500 -720 Descending Indianapolis Center
15:12 38.3244 -80.5106 84° East 493 567 33,000 -300 Descending Indianapolis Center
15:13 38.3614 -80.3239 76° East 487 560 32,900 -900 Descending Washington Center
15:14 38.3933 -80.1508 77° East 487 560 31,200 -2,040 Descending Washington Center
15:15 38.4267 -79.9781 76° East 487 560 28,900 -2,100 Descending Washington Center
15:16 38.4600 -79.8050 76° East 492 566 27,000 -1,920 Descending Washington Center
15:17 38.4911 -79.6289 77° East 503 579 25,100 -1,500 Descending Washington Center
15:18 38.5192 -79.4767 77° East 498 573 24,000 -600 Descending Washington Center
15:19 38.5450 -79.3186 78° East 479 551 24,000 -780 Level Washington Center
15:20 38.5642 -79.1656 81° East 448 516 22,500 -1,620 Descending Washington Center
15:21 38.5914 -79.0183 77° East 432 497 20,800 -1,800 Descending Washington Center
15:22 38.6142 -78.8758 78° East 421 484 19,000 -1,980 Descending Washington Center
15:23 38.6428 -78.7442 74° East 403 464 16,900 -2,400 Descending Washington Center
15:24 38.6731 -78.6153 73° East 383 441 14,300 -2,520 Descending Washington Center
15:25 38.7033 -78.4914 73° East 370 426 11,900 -1,680 Descending Washington Center
15:26 38.7331 -78.3808 71° East 350 403 11,000 -960 Descending Washington Center
15:27 38.8047 -78.3436 22° Northeast 270 311 10,100 -1,140 Descending Washington Center
15:28 38.8583 -78.2789 43° Northeast 265 305 8,800 -1,500 Descending Washington Center
15:29 38.8958 -78.1869 62° Northeast 271 312 7,100 -1,560 Descending Washington Center
15:30 38.9311 -78.0975 63° Northeast 276 318 5,700 -1,320 Descending Washington Center
15:31 38.9475 -78.0097 76° East 269 310 4,500 -900 Descending Washington Center
15:32 38.9533 -77.9192 85° East 256 295 4,000 -300 Descending Washington Center
15:33 38.9611 -77.8394 83° East 219 252 4,000 -300 Level Washington Center
15:34 38.9667 -77.7756 84° East 189 217 3,400 -540 Descending Washington Center
15:36 38.9833 -77.6500 80° East 188 216 2,500 -540 Descending Potomac TRACON
15:37 38.9667 -77.5833 108° East 175 201 2,000 -600 Descending Potomac TRACON
15:38 38.9500 -77.5333 113° Southeast 129 148 1,300 -720 Descending Potomac TRACON
15:39 38.9500 -77.5000 90° East 117 135 600 -720 Descending Potomac TRACON
15:41 38.9474 -77.4599 159° South  Level Estimated
15:48 38.9474 -77.4599 159° South  Level Estimated
15:49 38.9474 -77.4599 159° South  Level Estimated
15:50 38.9474 -77.4599 159° South  Level Estimated
15:51 38.9474 -77.4599 159° South  Level Estimated